Regional Weather Roundup
Issued by NWS

Home | Current Version | Previous Version | Text Only | Print | Product List | Glossary Off
Versions: 1 2 3 4 5 6 7 8 9 10 11 12 13 14 15 16 17 18 19 20 21 22 23 24 25 26 27 28

000
ASUS45 KCYS 170710
RWRWY

WYOMING REGIONAL WEATHER ROUNDUP
NATIONAL WEATHER SERVICE CHEYENNE WY
1200 AM MST TUE JAN 17 2017

NOTE:  "FAIR" INDICATES FEW OR NO CLOUDS BELOW 12,000 FEET
WITH NO SIGNIFICANT WEATHER AND/OR OBSTRUCTIONS TO VISIBILITY.

WYZ001-170800-
YELLOWSTONE NATIONAL PARK

CITY           SKY/WX    TMP DP  RH WIND       PRES   REMARKS
LK YELLOWSTONE   N/A     -7 -11  83 CALM      30.17S
W YELLOWSTONE  NOT AVBL

$$
WYZ002>013-054>058-071-098>099-170800-
NORTHERN WYOMING

CITY           SKY/WX    TMP DP  RH WIND       PRES   REMARKS
JACKSON        FAIR     -11 -13  92 N7        30.23S WCI -26
CODY           FAIR      12   4  70 N3        30.02S
GREYBULL       FAIR     -11 -16  78 CALM      30.12F
WORLAND        FAIR      -5  -7  91 CALM      30.10S
SHERIDAN       FAIR       9   1  70 S5        30.00F WCI   1
BUFFALO        FAIR      27   4  37 W5        30.00F WCI  22
GILLETTE         N/A     14   6  70 S6        30.02F WCI   5
HULETT         FAIR      12   5  73 MISG      30.03F
NEWCASTLE      FAIR      18   9  68 CALM      30.07F

$$
WYZ014>020-022>026-101>103-170800-
CENTRAL WYOMING

CITY           SKY/WX    TMP DP  RH WIND       PRES   REMARKS
BIG PINEY      FAIR     -16 -19  87 CALM      30.17F
PINEDALE       FAIR     -20 -26  76 NW6       30.18F WCI -36
DUBOIS         NOT AVBL
LANDER         FAIR       7   3  84 CALM      30.09S
RIVERTON       FAIR       0  -1  96 CALM      30.10F
CASPER         FAIR      22   7  52 SW21G36   30.06F WCI   6
DOUGLAS        FAIR      11   8  88 W3        30.06F

$$
WYZ021-027>030-104>119-170800-
SOUTHERN WYOMING

CITY           SKY/WX    TMP DP  RH WIND       PRES   REMARKS
EVANSTON       FAIR       5  -1  76 S5        30.16S WCI  -4
ROCK SPRINGS   FAIR      -2  -7  79 SW5       30.16S HAZE    WCI -12
RAWLINS        FAIR      -1  -7  75 CALM      30.13R
LARAMIE        FOG        3   1  91 CALM      30.07S VSB 1/4
CHEYENNE       FAIR      17   9  70 W9        30.06F WCI   6
TORRINGTON     FAIR      20  13  74 W7        30.07F WCI  11

$$




USA.gov is the U.S. government's official web portal to all federal, state and local government web resources and services.